Cordova, Spain

2:04 AM CET on February 20, 2017 (GMT +0100)
Cordoba

Weather History for LEBA - May, 2013

Change the Weather History Date:

Friday, May 24, 2013

  Actual Average Record
Temperature  
Mean Temperature 70 °F -  
Max Temperature 84 °F - - ()
Min Temperature 55 °F - - ()
Cooling Degree Days 4    
Growing Degree Days 20 (Base 50)    
Moisture  
Dew Point 55 °F    
Average Humidity 63    
Maximum Humidity 94    
Minimum Humidity 34    
Precipitation  
Precipitation 0.00 in 0.03 in - ()
Sea Level Pressure  
Sea Level Pressure 30.00 in    
Wind  
Wind Speed 6 mph ()    
Max Wind Speed 15 mph    
Max Gust Speed 25 mph    
Visibility 6.1 miles    
Events      
T = Trace of Precipitation, MM = Missing Value Source: Averaged Metar Reports

Daily Weather History Graph

Daily Weather History Graph

Search for Another Location

Airport or City:

Trip Planner

Search our weather history database for the weather conditions in past years. The results will help you decide how hot, cold, wet, or windy it might be!

Date:

Astronomy

May. 24, 2013 Rise Set
Actual Time 7:02 AM CEST 9:30 PM CEST
Civil Twilight 6:32 AM CEST 10:00 PM CEST
Nautical Twilight 5:55 AM CEST 10:37 PM CEST
Astronomical Twilight 5:14 AM CEST 11:19 PM CEST
Moon 8:56 PM CEST (5/24) 6:21 AM CEST (5/24)
Length of Visible Light 15h 27m
Length of Day
14h 27m
Waxing Gibbous, 99% of the Moon is Illuminated
May 24
Waxing Gibbous
May 25
Full
May 31
Last Quarter
Jun 8
New
Jun 16
First Quarter

Hourly Weather History & Observations

Time (CEST) Temp. Heat Index Dew Point Humidity Pressure Visibility Wind Dir Wind Speed Gust Speed Precip Events Conditions
2:00 AM 60 °F - 52 °F 68% 30.02 in - SW 3.5 mph - -  
7:00 AM 57.2 °F - 55.4 °F 94% 29.98 in 2.5 mi WSW 4.6 mph - N/A   Mostly Cloudy
8:00 AM 58 °F - 56 °F 92% 30.02 in 4 mi WSW 3.5 mph - -   Mist
8:00 AM 57.2 °F - 55.4 °F 94% 30.01 in 3.7 mi WSW 3.5 mph - N/A   Mostly Cloudy
9:00 AM 59.0 °F - 53.6 °F 82% 30.01 in 3.7 mi WSW 5.8 mph - N/A   Mostly Cloudy
9:28 AM 59.0 °F - 53.6 °F 82% 30.04 in 5.0 mi WSW 5.8 mph - N/A   Mostly Cloudy
10:00 AM 60.8 °F - 53.6 °F 77% 30.04 in 5.0 mi West 3.5 mph - N/A   Mostly Cloudy
11:00 AM 60.8 °F - 55.4 °F 82% 30.04 in 5.0 mi West 5.8 mph - N/A   Mostly Cloudy
12:00 PM 64.4 °F - 55.4 °F 73% 30.04 in 5.6 mi West 8.1 mph - N/A   Mostly Cloudy
12:31 PM 66.2 °F - 55.4 °F 68% 30.04 in 6.2 mi West 9.2 mph - N/A   Partly Cloudy
1:00 PM 68.0 °F - 55.4 °F 64% 30.04 in 6.2 mi West 8.1 mph - N/A   Partly Cloudy
2:00 PM 74 °F - 57 °F 45% 30.02 in 9 mi West 10.4 mph - -   Scattered Clouds
2:00 PM 71.6 °F - 55.4 °F 57% 30.01 in 6.2 mi West 9.2 mph - N/A   Partly Cloudy
3:00 PM 77.0 °F - 57.2 °F 50% 30.01 in 6.2 mi West 9.2 mph - N/A   Partly Cloudy
4:00 PM 78.8 °F - 57.2 °F 47% 29.98 in 6.2 mi SW 12.7 mph - N/A   Partly Cloudy
5:00 PM 80.6 °F 80.5 °F 55.4 °F 42% 29.95 in 6.2 mi WSW 13.8 mph 25.3 mph N/A   Partly Cloudy
6:00 PM 78.8 °F - 53.6 °F 42% 29.95 in 6.2 mi West 11.5 mph - N/A   Scattered Clouds
7:00 PM 75.2 °F - 53.6 °F 47% 29.95 in 6.2 mi West 15.0 mph - N/A   Scattered Clouds
8:00 PM 75 °F - 52 °F 34% 29.96 in 16 mi West 13.8 mph - -   Scattered Clouds
8:00 PM 75.2 °F - 53.6 °F 47% 29.95 in 6.2 mi West 12.7 mph - N/A   Partly Cloudy
9:00 PM 73.4 °F - 53.6 °F 50% 29.98 in - West 10.4 mph - N/A   Clear
10:00 PM 69.8 °F - 53.6 °F 56% 30.01 in - West 11.5 mph - N/A   Clear